Hyannis, MA

5:15 PM EDT on March 24, 2017 (GMT -0400)
Barnstable Municipal-Boardman-Polando Field

Weather History for KHYA - August, 2012

Change the Weather History Date:

Tuesday, August 21, 2012

  Actual Average Record
Temperature  
Mean Temperature 70 °F -  
Max Temperature 80 °F 77 °F 91 °F (1955)
Min Temperature 60 °F 59 °F 42 °F (1953)
Cooling Degree Days 4    
Growing Degree Days 20 (Base 50)    
Moisture  
Dew Point 63 °F    
Average Humidity 77    
Maximum Humidity 97    
Minimum Humidity 58    
Precipitation  
Precipitation 0.00 in - - ()
Sea Level Pressure  
Sea Level Pressure 29.98 in    
Wind  
Wind Speed 4 mph (WSW)    
Max Wind Speed 14 mph    
Max Gust Speed -    
Visibility 10 miles    
Events      
Averages and records for this station are not official NWS values.
T = Trace of Precipitation, MM = Missing Value Source: NWS Daily Summary

Daily Weather History Graph

Daily Weather History Graph

Search for Another Location

Airport or City:

Trip Planner

Search our weather history database for the weather conditions in past years. The results will help you decide how hot, cold, wet, or windy it might be!

Date:

Astronomy

Aug. 21, 2012 Rise Set
Actual Time 5:56 AM EDT 7:31 PM EDT
Civil Twilight 5:26 AM EDT 8:00 PM EDT
Nautical Twilight 4:51 AM EDT 8:35 PM EDT
Astronomical Twilight 4:13 AM EDT 9:13 PM EDT
Moon 10:27 AM EDT (8/21) 9:24 PM EDT (8/21)
Length of Visible Light 14h 33m
Length of Day
13h 34m
Waxing Crescent, 19% of the Moon is Illuminated
Aug 21
Waxing Crescent
Aug 24
First Quarter
Aug 31
Full
Sep 8
Last Quarter
Sep 15
New

Hourly Weather History & Observations

Time (EDT) Temp. Dew Point Humidity Pressure Visibility Wind Dir Wind Speed Gust Speed Precip Events Conditions
12:56 AM 62.1 °F 60.1 °F 93% 29.91 in 10.0 mi Calm Calm - N/A   Clear
1:56 AM 62.1 °F 60.1 °F 93% 29.91 in 10.0 mi Calm Calm - N/A   Clear
2:56 AM 60.1 °F 59.0 °F 96% 29.91 in 10.0 mi Calm Calm - N/A   Clear
3:56 AM 61.0 °F 60.1 °F 97% 29.91 in 10.0 mi Calm Calm - N/A   Clear
4:56 AM 61.0 °F 60.1 °F 97% 29.92 in 10.0 mi Calm Calm - N/A   Clear
5:56 AM 61.0 °F 59.0 °F 93% 29.93 in 10.0 mi Calm Calm - N/A   Clear
6:56 AM 66.0 °F 64.0 °F 93% 29.95 in 10.0 mi Calm Calm - N/A   Partly Cloudy
7:56 AM 70.0 °F 64.9 °F 84% 29.96 in 10.0 mi WSW 6.9 mph - N/A   Mostly Cloudy
8:56 AM 72.0 °F 64.9 °F 78% 29.96 in 10.0 mi West 6.9 mph - N/A   Overcast
9:56 AM 73.9 °F 64.9 °F 73% 29.97 in 10.0 mi WSW 3.5 mph - N/A   Partly Cloudy
10:56 AM 75.9 °F 62.1 °F 62% 29.98 in 10.0 mi West 8.1 mph - N/A   Clear
11:56 AM 78.1 °F 62.1 °F 58% 29.98 in 10.0 mi WNW 9.2 mph - N/A   Partly Cloudy
12:56 PM 77.0 °F 63.0 °F 62% 29.98 in 10.0 mi SSW 9.2 mph - N/A   Partly Cloudy
1:56 PM 79.0 °F 63.0 °F 58% 29.98 in 10.0 mi SW 13.8 mph - N/A   Partly Cloudy
2:56 PM 78.1 °F 62.1 °F 58% 29.99 in 10.0 mi SW 13.8 mph - N/A   Partly Cloudy
3:56 PM 79.0 °F 63.0 °F 58% 29.99 in 10.0 mi WSW 10.4 mph - N/A   Partly Cloudy
4:56 PM 78.1 °F 64.9 °F 64% 29.99 in 10.0 mi SW 10.4 mph - N/A   Clear
5:56 PM 75.0 °F 64.0 °F 69% 30.01 in 10.0 mi SW 9.2 mph - N/A   Clear
6:56 PM 73.0 °F 62.1 °F 68% 30.01 in 10.0 mi SW 9.2 mph - N/A   Clear
7:56 PM 72.0 °F 63.0 °F 73% 30.03 in 10.0 mi WSW 8.1 mph - N/A   Clear
8:56 PM 71.1 °F 63.0 °F 75% 30.05 in 10.0 mi WSW 5.8 mph - N/A   Clear
9:56 PM 71.1 °F 63.0 °F 75% 30.06 in 10.0 mi WSW 5.8 mph - N/A   Clear
10:56 PM 69.1 °F 64.0 °F 84% 30.07 in 10.0 mi West 4.6 mph - N/A   Clear
11:56 PM 69.8 °F 64.4 °F 83% 30.07 in 10.0 mi WSW 4.6 mph - N/A   Clear